Pecos, TX

3:10 PM CDT on May 24, 2017 (GMT -0500)
Pecos Municipal

Weather History for KPEQ - March, 2013

Change the Weather History Date:

Wednesday, March 27, 2013

  Actual Average Record
Temperature  
Mean Temperature 58 °F -  
Max Temperature 83 °F 77 °F 97 °F (1971)
Min Temperature 35 °F 42 °F 25 °F (1955)
Degree Days  
Heating Degree Days 6    
Growing Degree Days 8 (Base 50)    
Moisture  
Dew Point 27 °F    
Average Humidity 38    
Maximum Humidity 62    
Minimum Humidity 14    
Precipitation  
Precipitation 0.00 in - - ()
Sea Level Pressure  
Sea Level Pressure 30.03 in    
Wind  
Wind Speed 7 mph (East)    
Max Wind Speed 16 mph    
Max Gust Speed -    
Visibility 10 miles    
Events      
Averages and records for this station are not official NWS values.
T = Trace of Precipitation, MM = Missing Value Source: NWS Daily Summary

Daily Weather History Graph

Daily Weather History Graph

Search for Another Location

Airport or City:

Trip Planner

Search our weather history database for the weather conditions in past years. The results will help you decide how hot, cold, wet, or windy it might be!

Date:

Astronomy

Mar. 27, 2013 Rise Set
Actual Time 7:48 AM CDT 8:10 PM CDT
Civil Twilight 7:24 AM CDT 8:34 PM CDT
Nautical Twilight 6:55 AM CDT 9:03 PM CDT
Astronomical Twilight 6:27 AM CDT 9:32 PM CDT
Moon 8:51 PM CDT (3/27) 7:44 AM CDT (3/27)
Length of Visible Light 13h 10m
Length of Day
12h 21m
Full, 100% of the Moon is Illuminated
Mar 27
Full
Apr 2
Last Quarter
Apr 10
New
Apr 18
First Quarter
Apr 25
Full

Hourly Weather History & Observations

Time (CDT) Temp. Windchill Dew Point Humidity Pressure Visibility Wind Dir Wind Speed Gust Speed Precip Events Conditions
12:15 AM 50.9 °F - 21.7 °F 32% 30.09 in 10.0 mi ESE 11.5 mph - N/A   Clear
12:35 AM 50.2 °F - 21.9 °F 33% 30.10 in 10.0 mi ESE 11.5 mph - N/A   Clear
12:55 AM 49.1 °F - 21.9 °F 34% 30.09 in 10.0 mi ESE 10.4 mph - N/A   Clear
1:15 AM 47.8 °F - 21.9 °F 36% 30.09 in 10.0 mi East 8.1 mph - N/A   Clear
1:35 AM 45.9 °F 42.3 °F 21.6 °F 38% 30.09 in 10.0 mi East 6.9 mph - N/A   Clear
1:55 AM 43.9 °F 39.9 °F 21.7 °F 41% 30.09 in 10.0 mi East 6.9 mph - N/A   Clear
2:15 AM 42.6 °F 39.0 °F 21.7 °F 44% 30.08 in 10.0 mi East 5.8 mph - N/A   Clear
2:35 AM 41.9 °F 37.5 °F 22.3 °F 46% 30.07 in 10.0 mi East 6.9 mph - N/A   Clear
2:55 AM 40.6 °F 36.7 °F 22.1 °F 48% 30.07 in 10.0 mi East 5.8 mph - N/A   Clear
3:15 AM 40.5 °F 36.5 °F 22.5 °F 49% 30.05 in 10.0 mi ESE 5.8 mph - N/A   Clear
3:35 AM 38.3 °F 34.8 °F 21.6 °F 51% 30.04 in 10.0 mi East 4.6 mph - N/A   Clear
3:55 AM 38.3 °F 33.9 °F 21.7 °F 51% 30.04 in 10.0 mi NE 5.8 mph - N/A   Clear
4:15 AM 39.2 °F 35.0 °F 23.4 °F 53% 30.04 in 10.0 mi NNE 5.8 mph - N/A   Clear
4:35 AM 40.1 °F 36.9 °F 23.7 °F 52% 30.03 in 10.0 mi ENE 4.6 mph - N/A   Clear
4:55 AM 38.5 °F - 21.9 °F 51% 30.03 in 10.0 mi Calm Calm - N/A   Clear
5:15 AM 38.8 °F - 23.4 °F 54% 30.03 in 10.0 mi Calm Calm - N/A   Clear
5:35 AM 36.9 °F - 22.3 °F 56% 30.04 in 10.0 mi Calm Calm - N/A   Clear
5:55 AM 36.0 °F - 21.9 °F 57% 30.03 in 10.0 mi Calm Calm - N/A   Clear
6:15 AM 35.6 °F - 21.9 °F 58% 30.04 in 10.0 mi Calm Calm - N/A   Clear
6:35 AM 37.8 °F 35.3 °F 23.4 °F 56% 30.04 in 10.0 mi NE 3.5 mph - N/A   Clear
6:55 AM 38.5 °F 36.1 °F 24.6 °F 58% 30.04 in 10.0 mi NE 3.5 mph - N/A   Clear
7:15 AM 37.4 °F 33.8 °F 24.4 °F 60% 30.05 in 10.0 mi ENE 4.6 mph - N/A   Clear
7:35 AM 36.5 °F - 24.4 °F 62% 30.05 in 10.0 mi Calm Calm - N/A   Clear
7:55 AM 37.9 °F - 25.5 °F 61% 30.06 in 10.0 mi Calm Calm - N/A   Clear
8:15 AM 37.9 °F - 25.7 °F 61% 30.07 in 10.0 mi Calm Calm - N/A   Clear
8:35 AM 39.4 °F 36.1 °F 26.6 °F 60% 30.07 in 10.0 mi NNE 4.6 mph - N/A   Clear
9:55 AM 46.8 °F - 27.5 °F 47% 30.10 in 10.0 mi Calm Calm - N/A   Clear
10:15 AM 49.5 °F - 27.5 °F 43% 30.11 in 10.0 mi Calm Calm - N/A   Clear
11:35 AM 58.8 °F - 29.7 °F 33% 30.10 in 10.0 mi East 4.6 mph - N/A   Clear
12:15 PM 64.8 °F - 30.7 °F 28% 30.09 in 10.0 mi ENE 4.6 mph - N/A   Clear
1:15 PM 72.1 °F - 30.2 °F 21% 30.06 in 10.0 mi ESE 6.9 mph - N/A   Clear
1:35 PM 73.9 °F - 30.4 °F 20% 30.05 in 10.0 mi ESE 5.8 mph - N/A   Clear
1:55 PM 75.6 °F - 29.3 °F 18% 30.04 in 10.0 mi SE 5.8 mph - N/A   Clear
2:15 PM 76.6 °F - 29.5 °F 18% 30.03 in 10.0 mi East 6.9 mph - N/A   Clear
2:55 PM 79.3 °F - 30.2 °F 17% 30.00 in 10.0 mi SE 3.5 mph - N/A   Clear
3:35 PM 79.0 °F - 28.9 °F 16% 29.99 in 10.0 mi East 4.6 mph - N/A   Clear
3:55 PM 79.2 °F - 29.3 °F 16% 29.98 in 10.0 mi SSE 3.5 mph - N/A   Clear
4:15 PM 82.2 °F - 30.4 °F 15% 29.97 in 10.0 mi East 4.6 mph - N/A   Clear
4:35 PM 82.0 °F - 28.9 °F 14% 29.96 in 10.0 mi East 4.6 mph - N/A   Clear
4:55 PM 82.6 °F - 29.3 °F 14% 29.95 in 10.0 mi East 5.8 mph - N/A   Clear
6:35 PM 82.2 °F - 28.0 °F 14% 29.93 in 10.0 mi East 4.6 mph - N/A   Clear
7:55 PM 75.6 °F - 32.0 °F 20% 29.93 in 10.0 mi East 11.5 mph - N/A   Clear
8:15 PM 73.2 °F - 32.0 °F 22% 29.95 in 10.0 mi East 11.5 mph - N/A   Clear
8:35 PM 71.4 °F - 32.2 °F 24% 29.95 in 10.0 mi East 11.5 mph - N/A   Clear
8:55 PM 70.2 °F - 32.7 °F 25% 29.95 in 10.0 mi ESE 16.1 mph - N/A   Clear
9:15 PM 69.4 °F - 33.1 °F 26% 29.96 in 10.0 mi ESE 16.1 mph - N/A   Clear
9:55 PM 66.7 °F - 36.0 °F 32% 29.98 in 10.0 mi ESE 13.8 mph - N/A   Clear
10:15 PM 65.5 °F - 37.0 °F 35% 29.98 in 10.0 mi ESE 16.1 mph - N/A   Clear
10:35 PM 64.2 °F - 37.6 °F 37% 30.00 in 10.0 mi East 11.5 mph - N/A   Clear
10:55 PM 62.6 °F - 38.5 °F 41% 30.00 in 10.0 mi East 11.5 mph - N/A   Clear
11:15 PM 61.7 °F - 39.6 °F 44% 30.01 in 10.0 mi East 15.0 mph - N/A   Clear
11:55 PM 59.9 °F - 41.0 °F 50% 30.02 in 10.0 mi ESE 10.4 mph - N/A   Clear